Theta_e
310 308 310 311 311 310 311 310 310 309 311 312 312 311 312 313 316 317 331 339 340 340 338 336 332 333 334 332 332 330 330 329 330 331 331 332 332 333 334 333 332 334 336 333
308 309 310 312 311 311 311 311 310 311 313 311 312 311 313 313 316 316 320 338 339 339 339 336 332 332 333 332 332 331 329 331 328 332 329 333 333 334 333 333 334 331 335 333
309 310 310 312 312 312 311 310 310 310 312 312 310 311 312 313 316 317 317 333 338 339 338 336 332 331 332 333 332 332 330 329 329 327 329 332 334 334 334 334 333 333 333 331
310 310 310 312 313 312 311 311 311 312 312 311 312 311 312 313 314 314 316 319 336 339 338 336 334 330 332 333 332 332 331 329 330 324 326 332 333 333 335 334 333 334 335 332
309 310 309 310 313 313 313 313 312 312 311 311 312 309 310 313 313 312 314 316 336 337 337 335 335 332 332 332 332 332 332 331 328 327 324 330 334 334 334 333 332 335 335 332
312 312 311 309 312 313 313 312 312 312 312 312 312 309 309 310 313 314 314 316 332 337 337 336 335 334 333 333 333 332 332 331 329 328 327 332 335 334 334 333 334 335 334 332
306 311 312 312 310 312 312 311 311 311 311 312 312 311 310 313 313 321 315 316 327 337 337 336 334 334 334 333 333 332 332 332 330 330 331 333 335 335 335 333 333 334 334 332
308 310 309 309 311 311 312 312 312 312 311 312 313 311 311 314 325 329 322 317 321 333 337 336 335 334 334 333 333 333 332 332 331 330 334 333 335 335 335 335 334 334 333 332
306 305 305 309 310 313 314 312 311 313 314 313 311 311 318 321 325 326 325 327 334 334 335 337 336 334 334 333 333 333 333 332 332 331 333 335 334 336 337 335 334 334 333 331
303 304 306 307 312 311 311 312 312 312 313 312 312 311 313 322 323 323 321 323 330 333 336 334 336 335 335 334 334 333 333 333 334 333 332 335 336 335 335 335 336 335 334 331
299 301 305 309 311 309 310 306 309 313 312 311 312 312 318 319 321 319 318 321 326 325 328 332 332 330 331 328 328 334 334 333 334 335 334 333 336 336 335 334 335 334 333 332
297 300 302 305 305 304 305 303 305 310 313 312 312 312 317 318 316 316 316 316 322 321 322 328 332 333 332 329 331 326 329 333 335 335 336 336 335 335 335 334 332 334 333 332
296 298 300 301 303 302 302 303 304 305 308 312 311 318 316 316 315 315 314 315 316 316 315 320 326 329 331 331 330 324 322 326 336 336 335 336 335 335 334 333 333 333 332 332
297 296 297 299 300 301 301 301 302 304 307 305 309 317 317 315 314 313 313 314 313 313 313 313 314 317 321 327 328 330 332 333 333 333 328 326 332 324 331 330 327 329 331 331
296 296 297 297 298 299 299 300 302 305 304 305 306 315 315 312 312 312 312 312 311 311 311 311 313 314 314 315 321 326 328 329 330 330 328 327 325 326 323 325 330 328 329 330
295 296 296 297 298 300 300 300 299 302 303 305 307 316 312 312 310 310 310 309 308 307 307 308 310 313 314 314 314 315 318 322 325 325 325 326 327 325 325 327 326 326 327 327
295 295 296 297 297 297 298 302 304 304 305 304 304 312 309 308 307 305 304 304 303 303 303 304 305 308 312 313 313 313 317 316 317 319 320 321 322 322 322 321 322 322 323 323
295 295 296 297 297 289 298 300 302 300 303 303 304 304 304 306 304 303 302 302 301 301 301 301 302 304 308 312 313 315 316 315 314 313 313 315 317 318 318 318 318 318 318 319
296 295 297 294 297 297 298 299 301 301 300 301 302 303 300 301 302 301 301 301 300 300 300 300 300 301 304 306 308 309 310 311 311 311 311 310 311 316 317 318 317 316 316 317
296 297 296 296 296 295 297 299 299 299 297 303 301 302 301 301 302 300 300 299 299 299 299 299 299 299 300 301 305 306 306 307 308 309 310 310 309 310 314 315 315 314 314 314
294 296 297 297 295 296 296 299 299 297 301 302 302 302 300 302 302 301 299 298 298 298 298 298 299 298 298 298 299 299 300 304 306 307 309 310 309 308 309 312 314 314 314 314
296 295 296 296 296 295 295 295 298 299 299 301 301 300 299 298 299 300 299 299 299 298 297 298 298 298 298 298 298 298 297 298 304 305 307 309 310 309 308 308 309 312 312 312
293 293 291 293 293 293 293 294 293 294 293 294 299 299 299 298 297 296 296 296 296 297 297 296 296 296 297 297 297 297 297 297 297 300 303 305 309 308 308 307 306 307 309 310
291 291 291 291 292 291 292 293 292 292 292 293 295 296 295 296 296 296 295 296 296 296 296 296 296 295 295 295 296 296 296 296 296 296 298 298 301 306 307 306 305 305 305 306
290 290 290 290 290 291 291 290 290 291 291 291 292 292 293 295 294 295 294 294 294 294 295 295 295 295 295 295 295 295 295 296 296 296 296 297 298 301 302 305 304 304 304 304
289 289 289 289 290 290 289 289 289 290 290 290 291 291 292 293 294 294 295 294 293 293 293 294 294 294 294 294 294 294 294 295 295 295 295 295 296 297 297 297 298 302 303 303
Wind_Speed
22 12 19 27 25 20 13 14 13 9 10 16 19 14 15 14 13 18 30 37 38 43 46 37 41 44 45 43 42 42 40 38 39 35 37 33 29 30 25 24 18 27 21 24
15 19 28 25 17 18 13 19 19 9 20 13 18 18 21 14 17 17 22 38 41 42 43 39 46 38 49 49 46 44 43 41 44 37 40 32 29 30 24 24 19 25 26 24
22 25 23 19 20 18 20 20 20 17 13 13 8 17 15 12 18 27 29 41 46 48 48 44 49 47 50 54 54 50 47 45 45 41 42 32 28 30 27 27 25 27 24 26
18 24 22 21 24 19 19 25 22 21 14 12 9 13 15 17 18 12 20 24 45 46 53 55 55 58 45 54 55 52 49 47 46 47 47 41 37 40 33 32 31 29 25 24
20 18 15 25 25 22 24 15 18 22 18 12 18 3 6 9 7 10 15 21 44 46 50 53 57 62 49 51 55 55 51 47 46 47 46 46 41 41 36 32 30 29 27 25
8 23 11 21 21 23 23 17 18 15 16 14 15 6 5 7 11 12 14 22 42 49 54 57 59 59 50 50 53 54 49 47 48 50 47 47 43 40 40 37 34 31 28 30
21 9 14 17 17 16 16 17 12 12 12 11 14 6 7 12 7 6 20 27 38 49 48 46 46 48 47 39 49 54 52 50 47 49 47 48 45 44 41 40 36 34 32 33
10 9 9 10 9 17 14 18 10 8 5 13 14 6 6 4 6 11 7 33 35 42 46 50 50 48 49 44 49 53 54 50 46 46 46 45 43 44 44 43 39 36 31 31
10 9 24 16 19 1 9 14 10 7 5 2 4 5 4 6 8 11 15 24 19 30 32 46 50 45 39 42 39 47 47 47 46 44 49 44 45 44 42 39 37 37 30 27
10 10 10 18 14 14 12 7 3 2 5 5 4 7 6 8 7 8 13 17 28 29 22 31 42 48 46 35 29 41 48 48 47 45 47 45 43 45 38 35 36 37 33 28
6 5 14 10 14 17 12 9 9 6 3 4 3 5 7 15 16 13 13 26 28 31 25 21 24 30 29 35 28 34 45 49 46 45 45 51 48 45 45 39 33 36 36 30
5 3 9 10 11 18 14 18 16 5 7 4 7 6 8 16 11 12 15 26 31 33 28 24 21 21 31 31 40 50 27 32 48 52 50 53 53 49 46 39 36 39 38 30
7 5 9 11 8 14 9 20 19 14 8 5 3 1 5 20 15 16 18 26 29 31 31 25 24 26 32 37 32 32 31 37 43 39 46 49 43 37 35 38 36 37 35 33
7 3 2 3 8 9 13 20 16 12 3 12 5 5 8 6 15 13 20 30 31 31 31 29 24 20 22 22 25 25 20 21 22 26 18 21 26 16 28 28 26 36 35 37
10 7 12 10 17 17 16 16 14 8 11 5 14 9 12 14 5 13 23 25 27 27 29 28 25 22 19 16 11 11 11 14 17 19 26 35 38 34 29 29 44 52 45 31
10 7 12 14 12 8 11 16 13 9 12 10 13 3 8 15 16 17 20 23 25 27 28 27 24 25 22 18 14 12 8 10 13 15 16 16 18 15 18 22 26 27 25 29
13 8 8 13 12 15 7 2 7 8 8 7 6 6 7 13 12 16 22 25 25 28 27 23 22 22 22 20 17 12 14 15 10 11 11 12 14 15 15 17 18 21 24 27
15 12 5 8 9 3 5 9 5 3 4 5 10 9 12 8 16 24 27 29 28 27 25 21 15 21 24 19 21 19 16 16 13 13 10 5 7 10 12 12 14 15 18 21
10 9 5 3 7 11 15 4 4 2 1 4 6 8 11 13 11 22 24 22 21 19 19 19 15 14 23 21 18 24 24 20 14 12 10 11 7 9 9 10 11 12 15 17
16 8 5 3 3 3 4 7 4 2 4 8 6 3 4 12 3 5 15 17 16 13 13 13 13 13 17 20 12 15 17 18 17 11 10 11 13 9 8 9 10 11 13 14
9 7 8 6 3 4 16 24 9 3 5 7 9 7 5 3 1 8 9 10 10 9 8 11 10 11 12 14 12 12 12 13 14 14 13 8 12 13 10 5 7 8 10 12
3 3 3 4 5 7 29 17 9 11 20 1 7 12 14 12 4 2 10 14 7 6 11 7 7 7 8 9 10 11 10 10 9 10 9 12 6 11 12 10 3 5 8 10
7 3 3 4 5 16 16 19 18 21 24 27 9 11 10 8 3 2 3 5 3 1 7 11 11 7 5 6 5 9 7 9 8 5 8 8 7 2 5 7 7 2 4 8
6 12 4 7 1 16 14 18 18 21 20 26 18 21 15 3 11 12 11 5 6 7 5 7 11 8 5 5 5 3 2 4 5 5 3 5 6 2 2 5 7 6 4 3
9 10 10 13 13 14 12 20 19 18 18 19 20 17 16 21 20 14 6 5 5 6 9 7 7 9 7 7 7 5 4 4 5 3 2 4 4 5 4 7 7 6 5 5
11 7 7 8 11 13 17 23 21 16 18 22 21 23 22 14 19 25 21 12 13 11 8 12 13 10 11 12 12 10 7 8 7 5 7 7 5 10 12 8 9 10 10 10
Wind_Direction
281 256 234 232 231 231 225 242 232 256 240 219 237 223 223 229 210 222 173 176 177 182 188 196 180 184 186 186 182 188 183 187 183 181 185 180 187 180 190 198 198 185 183 190
271 243 239 236 242 228 233 236 247 247 235 210 230 231 214 206 226 216 198 181 181 181 182 189 188 183 187 190 188 188 190 186 187 186 182 182 186 183 194 199 188 192 192 188
269 254 255 235 238 228 225 233 245 241 266 249 214 229 212 217 206 228 223 188 182 180 182 184 189 190 190 194 191 192 194 193 190 189 179 181 187 183 195 194 192 199 205 192
262 258 241 221 237 225 231 230 242 257 250 255 245 241 206 200 208 217 228 203 185 181 185 183 187 192 195 195 194 194 196 197 192 190 182 180 187 186 192 190 196 201 209 194
245 256 224 242 218 229 242 234 234 242 254 257 272 163 226 156 213 229 233 213 184 182 184 185 187 192 196 197 197 198 197 198 195 193 187 183 188 190 192 198 199 208 209 208
283 267 283 242 235 225 239 248 257 250 241 247 244 170 263 192 205 235 238 224 180 187 185 187 189 189 190 194 198 196 197 202 200 195 191 185 190 191 192 191 199 207 213 210
317 285 261 252 252 250 229 227 237 243 243 239 230 206 226 217 204 226 224 228 188 181 184 183 184 186 189 187 199 199 200 202 205 200 194 191 190 194 198 195 202 209 215 211
334 333 15 6 277 240 237 231 214 218 202 231 236 196 238 228 94 47 162 214 196 180 178 179 181 184 192 198 201 198 200 203 205 201 196 199 198 198 200 205 205 212 221 216
345 295 327 347 331 7 283 238 200 222 223 193 195 285 25 125 77 65 43 78 112 173 164 172 179 187 196 204 200 193 200 204 207 203 198 202 202 199 198 203 207 215 219 218
336 294 316 329 333 31 25 343 292 170 191 220 256 202 211 134 124 88 78 71 81 96 119 151 171 185 184 191 192 207 206 206 208 206 205 205 204 208 202 200 209 214 216 216
13 300 313 315 36 18 11 19 347 315 155 210 255 260 2 173 155 129 98 86 95 92 100 118 170 193 204 205 207 207 205 208 209 211 209 208 208 205 203 206 206 209 214 216
340 314 309 289 332 31 83 31 15 1 325 310 193 260 339 99 78 87 84 87 95 99 100 102 125 147 183 191 195 214 241 224 213 212 211 210 211 211 208 207 212 215 217 218
325 336 332 351 26 20 13 350 349 325 256 22 307 153 39 102 92 81 80 86 86 92 93 99 105 113 147 180 188 204 229 234 227 211 210 218 207 210 215 216 215 217 218 221
332 341 112 288 271 271 308 323 334 340 338 329 3 348 114 70 106 100 84 85 83 84 89 89 85 90 103 132 166 178 184 195 206 207 191 271 206 252 226 219 236 233 222 214
2 321 308 323 306 289 285 307 316 327 314 314 307 331 346 335 79 95 92 86 83 79 78 78 79 83 90 95 128 152 159 165 183 193 201 210 221 213 213 210 211 209 205 220
304 286 312 299 297 322 315 296 289 274 294 310 330 39 355 326 93 87 86 82 79 75 71 71 68 66 82 96 109 106 119 152 170 180 173 185 196 195 188 199 208 213 213 221
275 275 296 292 317 315 309 312 18 15 58 305 13 358 41 355 50 71 79 75 70 71 73 66 58 57 65 88 102 102 98 94 122 137 152 176 191 198 198 201 204 210 214 213
255 253 251 278 304 336 240 355 140 68 96 331 334 22 346 2 51 65 78 74 66 66 67 67 60 56 62 84 94 98 109 92 88 80 93 130 175 188 197 200 204 204 209 213
279 243 241 229 266 279 306 1 13 56 124 154 282 342 17 352 24 55 68 73 73 67 61 65 59 58 64 67 77 87 87 82 73 71 62 64 94 188 198 201 204 207 209 211
319 302 189 194 240 276 318 41 54 318 269 344 213 249 5 347 140 55 74 77 70 70 73 57 62 57 67 61 71 83 81 84 76 59 54 48 62 82 159 180 193 201 210 211
301 325 279 273 248 266 6 359 38 310 337 23 52 77 130 100 278 351 61 50 52 54 60 60 67 65 57 56 51 63 66 78 71 67 44 21 37 45 65 125 176 192 207 213
332 355 312 338 226 239 360 344 357 311 315 16 94 103 84 71 99 295 14 37 54 352 16 43 40 74 71 54 49 49 50 46 75 66 57 51 15 25 29 40 72 185 201 214
271 217 206 168 283 311 347 4 12 347 360 352 330 161 146 172 136 48 360 309 351 122 306 2 24 60 65 42 47 56 42 30 36 72 61 37 47 6 23 16 16 46 191 212
330 347 335 334 310 315 331 6 5 354 345 335 339 331 341 203 183 192 211 223 279 308 247 236 283 344 351 16 34 14 332 33 3 358 35 49 17 347 316 339 335 345 342 253
275 302 309 296 299 332 347 342 335 332 328 327 326 323 326 325 324 276 240 255 254 256 270 298 252 253 287 298 309 324 331 330 293 319 312 326 323 304 291 286 292 288 281 282
257 262 268 284 322 290 304 305 311 314 309 305 310 314 320 292 289 305 256 235 253 271 291 288 285 286 273 268 280 288 298 303 317 289 272 266 288 283 295 298 295 281 276 255